星链-34501 (STARLINK-34501)

导读 | 豆包AI

STARLINK-34501是美国太空探索技术公司(SpaceX)星链计划中的一颗卫星,于2025年6月17日发射。星链计划旨在构建全球卫星互联网星座,为全球提供高速低延迟互联网服务,该卫星的入轨进一步扩充了星链星座的规模,提升星座的覆盖能力与服务稳定性。

基本信息
目录编号:
64429
目录名称:
STARLINK-34501
国际标识:
2025-129T
轨道中心:
EARTH
卫星名称:
星链-34501
卫星全名:
星链-34501 (STARLINK-34501)
卫星状态:
在轨 (已飞行270 天)
发射日期:
2025-06-17 UTC
国别 :
美国 (US)
星等 :
--
轨道信息
数据来源 国际轨道数据
星历时间: 2026-03-14T15:01:39+0800
9小时前
查看轨道信息
半长轴: 6950.181km
偏心率: 0.0002718
轨道倾角: 70.001°
近地点辐角 254.310°
升交点赤经 62.978°
平近点角 105.775°
近地点: 570.154km
远地点: 573.934km
周期: 96.107分钟
每日圈数: 14.98334
详细信息
固有亮度:
5
最大亮度:
2.5
卫星平台:
Starlink V1.0
覆盖范围:
全球
运营商:
太空探索技术公司
运营商所在国:
美国
制造商(研发单位):
太空探索技术公司
制造商所在国:
美国
使用方式:
暂无
卫星简介
Starlink 计划是 SpaceX 推出的全球卫星互联网项目,通过发射低轨道卫星,为全球尤其是偏远地区提供高速、低延迟的互联网服务。自 2019 年起,Starlink 已部署数千颗卫星,旨在缩小全球数字鸿沟,推动互联网普及。该项目还为军事、航空等行业提供通信支持,带来广泛经济效益。
2D轨道图
3D轨道图
轨道高度分析图
轨道倾角分析图
轨道综合分析图
查看轨道综合分析图